timestamp,wind_dir_avg,wind_spd_avg,wind_spd_max_dir,wind_spd_gust,battery_voltage,lat,long
2021-03-16 00:04:01+00:00,0.0,4.97,359.0,5.62,12.49,47.59359,-54.27349
2021-03-16 00:14:01+00:00,3.0,5.06,358.0,5.88,12.41,47.59359,-54.27349
2021-03-16 00:24:01+00:00,6.0,4.71,5.0,5.42,12.41,47.59359,-54.27349
2021-03-16 00:34:01+00:00,359.0,5.22,0.0,5.88,12.41,47.59359,-54.27349
2021-03-16 00:44:01+00:00,352.0,5.21,351.0,6.12,12.41,47.59359,-54.27349
2021-03-16 00:54:01+00:00,354.0,5.74,354.0,6.14,12.41,47.59359,-54.27349
2021-03-16 01:04:01+00:00,348.0,5.87,351.0,6.36,12.41,47.59359,-54.27349
2021-03-16 01:14:01+00:00,349.0,5.62,348.0,6.35,12.41,47.59359,-54.27349
2021-03-16 01:24:01+00:00,3.0,6.08,7.0,6.62,12.41,47.59359,-54.27349
2021-03-16 01:34:01+00:00,4.0,6.29,3.0,6.94,12.41,47.59359,-54.27349
2021-03-16 01:44:01+00:00,24.0,6.7,20.0,7.98,12.41,47.59359,-54.27349
2021-03-16 01:54:01+00:00,21.0,6.96,21.0,8.37,12.41,47.59359,-54.27349
2021-03-16 02:04:01+00:00,24.0,7.03,20.0,8.37,12.41,47.59359,-54.27349
2021-03-16 02:14:01+00:00,19.0,6.99,22.0,8.66,12.41,47.59359,-54.27349
2021-03-16 02:24:01+00:00,23.0,6.84,28.0,7.92,12.41,47.59359,-54.27349
2021-03-16 02:34:01+00:00,21.0,9.91,24.0,11.99,12.41,47.59359,-54.27349
2021-03-16 02:44:01+00:00,16.0,9.27,17.0,11.67,12.41,47.59359,-54.27349
2021-03-16 02:54:01+00:00,4.0,7.98,1.0,8.76,12.41,47.59359,-54.27349
2021-03-16 03:04:01+00:00,25.0,9.69,15.0,10.8,12.41,47.59359,-54.27349
2021-03-16 03:14:01+00:00,28.0,10.66,28.0,12.6,12.41,47.59359,-54.27349
2021-03-16 03:24:01+00:00,28.0,12.07,31.0,13.68,12.41,47.59359,-54.27349
2021-03-16 03:34:01+00:00,4.0,8.7,2.0,10.13,12.41,47.59359,-54.27349
2021-03-16 03:44:01+00:00,15.0,9.16,30.0,11.0,12.41,47.59359,-54.27349
2021-03-16 03:54:01+00:00,28.0,11.02,29.0,12.12,12.41,47.59359,-54.27349
2021-03-16 04:04:01+00:00,25.0,9.97,28.0,12.08,12.41,47.59359,-54.27349
2021-03-16 04:14:01+00:00,26.0,10.8,26.0,12.22,12.41,47.59359,-54.27349
2021-03-16 04:24:01+00:00,24.0,9.69,32.0,11.13,12.41,47.59359,-54.27349
2021-03-16 04:34:01+00:00,26.0,11.65,18.0,14.49,12.41,47.59359,-54.27349
2021-03-16 04:44:01+00:00,28.0,11.52,30.0,13.25,12.41,47.59359,-54.27349
2021-03-16 04:54:01+00:00,22.0,10.98,24.0,13.08,12.41,47.59359,-54.27349
2021-03-16 05:04:01+00:00,26.0,11.64,22.0,13.25,12.41,47.59359,-54.27349
2021-03-16 05:14:01+00:00,26.0,11.23,31.0,12.65,12.33,47.59359,-54.27349
2021-03-16 05:24:01+00:00,21.0,12.73,24.0,15.18,12.33,47.59359,-54.27349
2021-03-16 05:34:01+00:00,26.0,11.35,31.0,12.19,12.33,47.59359,-54.27349
2021-03-16 05:44:01+00:00,22.0,12.49,15.0,14.26,12.33,47.59359,-54.27349
2021-03-16 05:54:01+00:00,20.0,13.4,19.0,15.24,12.33,47.59359,-54.27349
2021-03-16 06:04:01+00:00,22.0,12.56,28.0,14.64,12.33,47.59359,-54.27349
2021-03-16 06:14:01+00:00,23.0,12.38,18.0,14.04,12.33,47.59359,-54.27349
2021-03-16 06:24:01+00:00,22.0,12.45,21.0,13.94,12.33,47.59359,-54.27349
2021-03-16 06:34:01+00:00,32.0,12.04,48.0,15.68,12.33,47.59359,-54.27349
2021-03-16 06:44:01+00:00,26.0,11.06,23.0,13.19,12.33,47.59359,-54.27349
2021-03-16 06:54:01+00:00,26.0,11.55,23.0,14.45,12.33,47.59359,-54.27349
2021-03-16 07:04:01+00:00,27.0,11.73,22.0,13.05,12.33,47.59359,-54.27349
2021-03-16 07:14:01+00:00,26.0,11.2,22.0,12.75,12.33,47.59359,-54.27349
2021-03-16 07:24:01+00:00,29.0,12.18,28.0,13.34,12.33,47.59359,-54.27349
2021-03-16 07:34:01+00:00,30.0,10.14,32.0,11.47,12.33,47.59359,-54.27349
2021-03-16 07:44:01+00:00,33.0,9.23,35.0,10.6,12.33,47.59359,-54.27349
2021-03-16 07:54:01+00:00,28.0,8.79,36.0,9.72,12.33,47.59359,-54.27349
2021-03-16 08:04:01+00:00,11.0,8.25,36.0,9.85,12.33,47.59359,-54.27349
2021-03-16 08:14:01+00:00,34.0,10.28,31.0,11.62,12.25,47.59359,-54.27349
2021-03-16 08:24:01+00:00,33.0,9.4,35.0,10.77,12.25,47.59359,-54.27349
2021-03-16 08:34:01+00:00,30.0,10.69,30.0,12.04,12.25,47.59359,-54.27349
2021-03-16 08:44:01+00:00,9.0,9.66,28.0,12.25,12.25,47.59359,-54.27349
2021-03-16 08:54:01+00:00,34.0,10.11,30.0,12.27,12.25,47.59359,-54.27349
2021-03-16 09:04:01+00:00,30.0,8.35,41.0,10.23,12.25,47.59359,-54.27349
2021-03-16 09:14:01+00:00,34.0,8.65,41.0,10.04,12.25,47.59359,-54.27349
2021-03-16 09:24:01+00:00,33.0,9.47,34.0,11.18,12.25,47.59359,-54.27349
2021-03-16 09:34:01+00:00,31.0,10.08,23.0,12.19,12.25,47.59359,-54.27349
2021-03-16 09:44:01+00:00,17.0,11.52,19.0,14.09,12.25,47.59359,-54.27349
2021-03-16 09:54:01+00:00,18.0,10.14,28.0,12.17,12.25,47.59359,-54.27349
2021-03-16 10:04:01+00:00,23.0,9.41,3.0,10.75,12.25,47.59359,-54.27349
2021-03-16 10:14:01+00:00,12.0,9.94,2.0,11.76,12.25,47.59359,-54.27349
2021-03-16 10:24:01+00:00,352.0,9.89,345.0,11.12,12.25,47.59359,-54.27349
2021-03-16 10:34:01+00:00,347.0,8.38,351.0,9.64,12.25,47.59359,-54.27349
2021-03-16 10:44:01+00:00,10.0,8.91,22.0,11.21,12.25,47.59359,-54.27349
2021-03-16 10:54:01+00:00,356.0,9.32,351.0,10.95,12.25,47.59359,-54.27349
2021-03-16 11:04:01+00:00,349.0,9.08,345.0,10.66,12.25,47.59359,-54.27349
2021-03-16 11:14:01+00:00,355.0,8.68,354.0,9.88,14.0,47.59359,-54.27349
2021-03-16 11:24:01+00:00,348.0,8.32,348.0,11.51,14.0,47.59359,-54.27349
2021-03-16 11:34:01+00:00,349.0,7.19,350.0,9.0,14.0,47.59359,-54.27349
2021-03-16 11:44:01+00:00,351.0,8.19,353.0,10.2,14.0,47.59359,-54.27349
2021-03-16 11:54:01+00:00,344.0,9.44,342.0,11.14,14.0,47.59359,-54.27349
2021-03-16 12:04:01+00:00,337.0,10.56,339.0,12.17,14.0,47.59359,-54.27349
2021-03-16 12:14:01+00:00,341.0,9.6,342.0,10.92,14.32,47.59359,-54.27349
2021-03-16 12:24:01+00:00,335.0,10.18,337.0,11.91,14.32,47.59359,-54.27349
2021-03-16 12:34:01+00:00,335.0,9.27,336.0,10.28,14.32,47.59359,-54.27349
2021-03-16 12:44:01+00:00,347.0,7.92,348.0,9.41,14.32,47.59359,-54.27349
2021-03-16 12:54:01+00:00,346.0,8.6,346.0,10.68,14.32,47.59359,-54.27349
2021-03-16 13:04:01+00:00,352.0,7.73,354.0,9.39,14.32,47.59359,-54.27349
2021-03-16 13:14:01+00:00,339.0,8.66,341.0,9.95,13.76,47.59359,-54.27349
2021-03-16 13:24:01+00:00,344.0,8.88,339.0,10.52,13.76,47.59359,-54.27349
2021-03-16 13:34:01+00:00,339.0,10.26,342.0,11.58,13.76,47.59359,-54.27349
2021-03-16 13:44:01+00:00,343.0,8.74,340.0,9.71,13.76,47.59359,-54.27349
2021-03-16 13:54:01+00:00,341.0,7.23,335.0,8.41,13.76,47.59359,-54.27349
2021-03-16 14:04:01+00:00,338.0,9.27,343.0,10.2,13.76,47.59359,-54.27349
2021-03-16 14:14:01+00:00,334.0,7.52,327.0,9.03,14.32,47.59359,-54.27349
2021-03-16 14:24:01+00:00,345.0,6.59,346.0,7.2,14.32,47.59359,-54.27349
2021-03-16 14:34:01+00:00,357.0,7.93,1.0,9.32,14.32,47.59359,-54.27349
2021-03-16 14:44:01+00:00,337.0,6.94,333.0,8.55,14.32,47.59359,-54.27349
2021-03-16 14:54:01+00:00,10.0,7.97,0.0,10.23,14.32,47.59359,-54.27349
2021-03-16 15:04:01+00:00,345.0,6.42,338.0,7.92,14.32,47.59359,-54.27349
2021-03-16 15:14:01+00:00,348.0,8.06,354.0,9.21,13.68,47.59359,-54.27349
2021-03-16 15:24:01+00:00,348.0,7.93,340.0,9.76,13.68,47.59359,-54.27349
2021-03-16 15:34:01+00:00,348.0,9.2,343.0,10.76,13.68,47.59359,-54.27349
2021-03-16 15:44:01+00:00,345.0,7.78,344.0,8.97,13.68,47.59359,-54.27349
2021-03-16 15:54:01+00:00,348.0,8.16,340.0,9.34,13.68,47.59359,-54.27349
2021-03-16 16:04:01+00:00,352.0,10.61,356.0,12.61,13.68,47.59359,-54.27349
2021-03-16 16:14:01+00:00,355.0,11.02,357.0,12.39,13.6,47.59359,-54.27349
2021-03-16 16:24:01+00:00,353.0,10.79,350.0,12.39,13.6,47.59359,-54.27349
2021-03-16 16:34:01+00:00,357.0,10.12,354.0,11.71,13.6,47.59359,-54.27349
2021-03-16 16:44:01+00:00,355.0,11.22,2.0,13.22,13.6,47.59359,-54.27349
2021-03-16 16:54:01+00:00,354.0,11.32,357.0,12.54,13.6,47.59359,-54.27349
2021-03-16 17:04:01+00:00,347.0,10.7,347.0,12.3,13.6,47.59359,-54.27349
2021-03-16 17:14:01+00:00,352.0,10.83,1.0,12.56,13.68,47.59359,-54.27349
2021-03-16 17:24:01+00:00,352.0,10.05,354.0,12.25,13.68,47.59359,-54.27349
2021-03-16 17:34:01+00:00,358.0,9.83,4.0,11.21,13.68,47.59359,-54.27349
2021-03-16 17:44:01+00:00,8.0,13.48,8.0,16.55,13.68,47.59359,-54.27349
2021-03-16 17:54:01+00:00,13.0,11.91,11.0,13.56,13.68,47.59359,-54.27349
2021-03-16 18:04:01+00:00,13.0,12.57,19.0,15.29,13.68,47.59359,-54.27349
2021-03-16 18:14:01+00:00,3.0,11.8,1.0,12.88,13.84,47.59359,-54.27349
2021-03-16 18:24:01+00:00,8.0,12.8,8.0,15.43,13.84,47.59359,-54.27349
2021-03-16 18:34:01+00:00,12.0,11.31,13.0,12.74,13.84,47.59359,-54.27349
2021-03-16 18:44:01+00:00,6.0,12.64,3.0,14.16,13.84,47.59359,-54.27349
2021-03-16 18:54:01+00:00,5.0,10.37,2.0,12.43,13.84,47.59359,-54.27349
2021-03-16 19:04:01+00:00,359.0,12.83,4.0,15.06,13.84,47.59359,-54.27349
2021-03-16 19:14:01+00:00,5.0,12.56,4.0,14.05,13.84,47.59359,-54.27349
2021-03-16 19:24:01+00:00,359.0,13.45,358.0,15.58,13.84,47.59359,-54.27349
2021-03-16 19:34:01+00:00,2.0,13.48,4.0,15.78,13.84,47.59359,-54.27349
2021-03-16 19:44:01+00:00,359.0,11.65,4.0,13.4,13.84,47.59359,-54.27349
2021-03-16 19:54:01+00:00,2.0,14.15,6.0,16.94,13.84,47.59359,-54.27349
2021-03-16 20:04:01+00:00,355.0,13.62,354.0,16.11,13.84,47.59359,-54.27349
2021-03-16 20:14:01+00:00,3.0,14.32,358.0,15.97,13.68,47.59359,-54.27349
2021-03-16 20:24:01+00:00,4.0,13.04,4.0,14.61,13.68,47.59359,-54.27349
2021-03-16 20:34:01+00:00,2.0,14.16,3.0,15.89,13.68,47.59359,-54.27349
2021-03-16 20:44:01+00:00,11.0,12.18,13.0,16.6,13.68,47.59359,-54.27349
2021-03-16 20:54:01+00:00,354.0,12.34,354.0,13.6,13.68,47.59359,-54.27349
2021-03-16 21:04:01+00:00,359.0,12.58,355.0,14.02,13.68,47.59359,-54.27349
2021-03-16 21:14:01+00:00,3.0,10.93,7.0,12.46,13.29,47.59359,-54.27349
2021-03-16 21:24:01+00:00,4.0,11.69,7.0,13.53,13.29,47.59359,-54.27349
2021-03-16 21:34:01+00:00,1.0,11.36,354.0,13.56,13.29,47.59359,-54.27349
2021-03-16 21:44:01+00:00,358.0,11.44,356.0,13.09,13.29,47.59359,-54.27349
2021-03-16 21:54:01+00:00,3.0,10.99,356.0,12.79,13.29,47.59359,-54.27349
2021-03-16 22:04:01+00:00,353.0,13.16,349.0,14.83,13.29,47.59359,-54.27349
2021-03-16 22:14:01+00:00,353.0,12.24,353.0,14.97,12.65,47.59359,-54.27349
2021-03-16 22:24:01+00:00,1.0,15.11,357.0,16.82,12.65,47.59359,-54.27349
2021-03-16 22:34:01+00:00,355.0,12.88,357.0,14.31,12.65,47.59359,-54.27349
2021-03-16 22:44:01+00:00,0.0,11.69,2.0,13.31,12.65,47.59359,-54.27349
2021-03-16 22:54:01+00:00,353.0,11.62,346.0,13.54,12.65,47.59359,-54.27349
2021-03-16 23:04:01+00:00,0.0,12.56,0.0,16.14,12.65,47.59359,-54.27349
2021-03-16 23:14:01+00:00,355.0,12.9,350.0,15.95,12.49,47.59359,-54.27349
2021-03-16 23:24:01+00:00,4.0,12.32,349.0,13.95,12.49,47.59359,-54.27349
2021-03-16 23:34:01+00:00,357.0,12.15,359.0,14.05,12.49,47.59359,-54.27349
2021-03-16 23:44:01+00:00,0.0,13.39,3.0,17.6,12.49,47.59359,-54.27349
2021-03-16 23:54:01+00:00,0.0,13.54,358.0,17.07,12.49,47.59359,-54.27349
